Wind_Speed
13 12 11 9 7 6 6 6 7 8 9 10 11 12 10 9 8 9 9 8 8 8 8 8 8 8 10 11 13 12 7 9 12 11 13 14 13 14 14 15 15 16 16 16 15 15 15 14 13 13 13 12 12 13 12 12 12 11 10 10 10 10 9 10 10 10 10 10 10 11 11 11 12 12 12 12 13 13 13 13 13 13 14 14 14
13 12 11 9 6 6 6 6 6 7 8 10 11 10 9 8 7 8 8 7 7 7 6 7 7 8 11 11 13 11 7 11 14 13 16 16 15 15 15 15 15 16 16 16 16 16 15 14 14 13 13 13 13 13 13 13 13 12 12 11 11 11 11 11 11 11 11 11 11 11 11 11 11 11 11 12 12 12 12 13 13 13 14 14 15
12 10 9 7 5 6 5 5 5 7 9 10 10 9 7 6 5 6 6 7 7 6 6 7 7 8 10 12 11 10 10 13 14 14 16 16 15 15 15 14 14 15 15 15 16 16 15 14 14 14 13 13 13 14 14 14 14 13 13 13 12 12 12 12 12 12 12 12 12 12 11 11 11 11 11 11 12 12 12 12 13 13 14 14 14
12 11 9 6 5 5 4 4 5 8 9 9 7 6 5 4 4 5 6 6 6 6 6 6 6 7 9 10 10 10 12 12 13 14 15 15 14 14 13 14 13 13 14 14 15 15 15 14 14 14 14 14 14 14 14 14 14 14 14 14 13 14 14 14 13 13 12 12 12 12 11 11 11 11 11 12 12 12 12 12 12 13 13 14 14
12 11 9 7 5 4 4 4 5 7 7 5 4 4 4 4 4 5 5 5 5 6 6 6 6 7 7 9 10 10 10 10 12 14 14 13 14 13 12 13 12 12 12 13 13 14 14 14 14 14 13 13 13 14 14 14 14 14 14 14 14 15 15 14 14 13 13 13 12 12 11 11 11 12 12 12 12 12 11 11 11 12 13 13 14
10 10 8 7 6 6 5 4 4 5 5 4 3 4 3 3 3 4 4 4 5 6 6 6 6 6 6 8 9 9 10 11 12 14 14 13 13 13 12 11 11 11 11 10 11 11 12 13 13 13 13 13 13 13 13 13 14 14 14 15 15 15 15 15 14 14 14 13 12 12 11 11 12 12 12 11 11 11 10 10 10 10 11 12 13
10 11 8 7 8 7 5 4 4 4 4 4 3 3 3 3 3 3 3 3 4 5 5 6 5 6 7 8 8 9 10 11 11 13 14 13 12 11 10 9 9 9 8 7 7 8 10 11 12 12 12 12 12 13 13 13 13 13 14 14 14 14 14 14 14 14 13 13 12 11 11 11 11 11 11 11 11 10 10 10 10 10 11 11 11
11 12 9 8 9 8 6 4 4 4 4 4 3 3 2 3 3 3 3 3 4 4 4 4 4 6 7 8 8 9 10 10 11 12 14 12 10 9 8 8 7 7 6 6 6 7 8 9 10 10 11 11 11 11 12 12 12 12 13 13 13 13 13 13 13 12 12 11 10 10 10 10 10 11 11 11 11 11 11 11 11 11 11 10 10
11 11 10 10 9 8 7 5 4 4 5 3 2 3 3 3 2 2 3 3 4 4 4 4 5 6 7 8 8 9 10 10 11 12 11 10 8 8 7 7 6 5 6 7 7 7 6 6 7 8 9 9 10 9 10 10 10 11 11 11 11 11 11 11 10 10 9 9 9 9 9 10 10 11 12 11 11 11 10 10 10 10 9 9 9
12 12 13 11 9 8 7 6 5 5 5 3 3 3 4 4 3 2 3 4 4 5 4 5 6 6 6 7 7 8 9 10 11 10 9 8 8 7 7 6 5 5 6 7 6 6 5 4 5 5 6 7 7 7 7 7 7 8 8 8 9 9 9 9 8 8 8 8 8 8 9 10 11 11 11 11 10 9 9 8 8 7 7 7 6
13 14 14 12 9 9 8 7 6 5 5 4 3 4 5 4 3 3 4 5 5 5 5 6 7 7 8 7 7 8 9 9 10 9 8 8 7 6 5 5 5 4 4 4 3 2 3 3 3 4 4 4 4 4 5 5 5 6 6 6 7 7 7 7 7 7 7 8 8 8 8 9 9 9 9 9 8 7 7 6 6 6 6 6 6
14 13 13 12 10 9 8 8 6 5 5 5 4 5 5 5 5 5 5 5 6 6 6 6 7 8 9 9 8 9 9 10 10 8 6 6 6 4 4 3 2 2 2 2 1 1 1 2 2 3 2 2 2 3 4 4 4 5 5 5 5 6 6 6 6 6 6 7 7 7 7 8 8 8 7 7 7 6 6 7 7 7 8 8 8
13 13 12 11 9 9 9 8 7 5 5 5 5 5 5 5 5 6 6 6 7 7 7 7 7 8 9 9 8 8 9 9 8 6 4 4 4 5 5 4 3 3 3 2 2 3 3 2 2 2 2 1 2 3 3 3 3 3 4 4 4 4 5 5 5 5 5 5 6 6 6 7 7 7 7 7 7 7 8 8 9 9 9 10 10
12 11 11 10 9 9 9 8 7 6 6 6 5 5 5 5 6 7 7 8 8 8 8 8 8 8 8 9 9 8 8 8 7 6 5 4 4 5 5 5 5 5 5 5 5 5 4 3 3 4 3 1 3 4 3 3 3 3 4 4 4 4 4 4 4 4 4 4 5 6 6 7 8 8 8 8 9 9 10 10 10 11 11 12 12
12 11 11 10 9 9 9 9 7 7 6 6 6 6 5 6 6 7 8 9 9 9 9 8 8 8 8 9 9 8 7 8 7 6 5 4 4 5 5 5 5 5 5 5 5 4 4 3 3 4 3 3 4 5 4 4 4 4 3 4 4 4 3 3 4 4 5 5 6 6 7 8 8 8 9 9 10 10 11 12 12 12 12 13 13
14 12 11 11 10 10 10 10 8 7 7 6 6 6 6 7 7 7 8 9 9 10 10 9 9 8 8 8 8 8 7 7 7 5 4 4 3 4 4 4 4 4 4 4 4 3 3 3 3 4 4 3 4 4 4 4 4 3 4 4 4 4 4 4 5 5 5 6 6 7 7 8 8 9 9 10 10 11 12 12 13 13 13 13 14
14 12 12 12 11 11 11 10 9 8 7 7 7 7 7 7 7 8 8 10 10 10 10 11 10 9 8 8 8 7 6 6 7 5 5 5 4 4 3 3 4 4 4 4 4 3 3 4 4 3 3 3 4 3 3 3 4 4 5 6 6 6 6 6 6 6 7 7 7 8 8 9 9 10 10 10 11 11 12 12 13 13 13 14 14
14 13 13 12 12 12 11 11 9 8 8 7 7 7 7 7 7 8 8 10 10 9 10 11 11 10 9 8 7 7 6 6 7 7 6 5 4 3 3 3 4 4 4 5 4 4 5 5 4 4 4 4 4 4 4 4 5 5 6 7 7 8 8 8 8 8 9 9 10 10 11 11 11 11 11 11 11 11 12 12 12 12 13 13 13
14 13 13 13 13 12 12 10 9 9 8 7 7 7 7 7 7 8 8 9 9 9 10 10 11 11 10 9 8 7 7 6 7 7 7 7 5 4 5 5 5 5 5 5 5 5 5 4 4 5 6 6 5 5 6 6 6 6 7 8 8 9 9 9 9 10 10 11 11 12 12 12 12 12 12 12 11 11 11 11 11 11 11 12 12
14 13 13 13 13 12 12 11 10 9 8 7 8 8 8 8 8 8 8 8 9 9 10 10 10 11 10 9 8 8 7 7 7 7 8 8 6 6 5 5 5 5 5 5 5 5 5 5 5 6 7 7 7 7 7 7 8 8 8 8 9 9 10 10 10 10 11 11 12 12 13 13 12 12 12 12 11 11 11 10 10 10 10 11 11
14 14 14 13 13 12 11 10 9 9 9 8 8 8 9 9 8 7 7 8 9 10 10 10 11 11 10 9 9 9 9 8 8 8 9 8 6 6 6 6 6 5 5 5 5 6 6 6 7 7 8 8 8 8 8 8 9 9 9 10 10 11 11 11 11 11 12 12 12 13 13 13 13 12 12 12 12 11 11 11 11 10 11 11 11
14 14 14 13 13 12 11 11 10 10 10 10 9 9 10 9 8 8 7 8 9 10 10 10 11 11 10 10 10 10 10 10 10 10 9 8 7 7 7 7 7 6 6 6 6 7 7 7 7 8 8 9 9 9 9 9 10 10 10 11 11 11 11 12 12 12 12 13 13 13 13 13 13 13 13 12 12 11 11 11 11 11 11 11 12
14 14 15 15 14 13 12 12 12 11 10 10 10 10 10 9 9 8 8 9 9 10 10 10 11 11 11 11 12 11 11 12 12 11 10 9 8 8 8 7 7 8 8 8 8 8 8 7 8 8 8 9 9 10 10 10 10 10 10 11 11 12 12 12 12 13 13 13 13 13 13 13 13 13 12 12 12 12 11 11 11 11 11 11 11
15 15 16 17 16 15 14 13 13 13 12 11 10 10 10 10 10 9 9 9 10 10 11 11 12 13 12 13 14 13 12 12 11 11 10 10 9 9 8 7 8 8 9 9 9 8 8 8 8 8 8 9 9 10 10 10 10 10 11 11 12 12 12 12 12 12 12 12 12 12 12 12 12 11 11 11 11 11 11 11 11 11 11 12 12
16 16 17 18 18 17 16 16 15 15 13 12 12 12 11 11 11 11 10 10 10 11 12 13 13 14 14 14 15 14 13 12 11 11 11 10 9 9 8 8 8 9 9 9 8 7 7 8 8 9 9 9 10 10 10 10 11 11 11 11 12 12 12 12 12 11 11 11 10 11 11 10 10 10 10 10 10 10 11 12 12 13 13 14 14
16 17 18 19 19 19 19 18 17 16 15 14 13 13 12 12 12 12 11 11 11 12 13 13 13 14 14 14 15 14 13 12 11 11 11 10 9 9 8 8 8 8 8 8 7 6 7 7 8 9 9 10 10 10 11 11 11 11 11 12 11 11 11 11 11 10 9 9 9 10 10 10 10 10 10 11 11 12 13 13 14 15 16 16 16
18 19 19 20 20 20 20 19 18 17 16 15 15 14 14 14 14 13 12 11 11 12 12 13 13 14 14 14 15 13 12 12 11 10 10 9 9 8 8 8 7 7 6 6 6 6 6 7 7 8 9 9 10 10 11 11 11 11 11 11 11 11 11 11 11 11 11 11 11 12 12 12 13 13 13 13 14 14 15 15 16 16 17 17 17
18 19 19 20 21 21 21 21 20 19 18 16 15 15 16 16 15 14 13 12 12 12 12 12 13 13 13 13 14 13 12 12 10 9 9 9 8 8 8 6 5 5 5 6 6 6 6 7 7 7 8 9 9 10 11 11 11 11 11 11 11 11 12 13 13 13 13 13 13 14 14 15 15 15 16 16 16 17 17 17 17 17 18 18 17
17 17 18 19 20 22 22 22 22 20 19 18 17 17 17 16 15 14 13 12 12 11 12 12 12 12 12 12 12 12 12 12 10 9 9 8 7 7 7 5 4 4 5 5 6 6 6 6 7 7 8 9 10 10 11 10 11 11 11 12 12 13 13 14 14 14 14 14 14 15 15 16 16 17 18 18 19 19 19 19 19 19 19 18 18
16 17 17 19 20 22 22 23 22 21 20 19 18 18 17 17 16 14 13 12 12 11 12 12 12 12 12 12 12 12 12 12 11 10 9 8 7 7 6 5 5 5 5 6 6 7 6 7 7 8 9 10 10 11 11 11 11 12 12 12 12 13 13 13 13 13 14 14 14 15 15 16 16 17 18 19 19 19 19 19 20 20 19 19 18
17 17 18 19 20 21 22 22 22 22 21 20 19 18 17 17 16 14 13 12 12 11 12 12 12 11 12 12 13 13 12 12 12 10 8 7 7 7 6 5 5 5 5 6 7 7 8 8 9 9 10 11 11 12 12 12 12 12 12 12 12 12 12 12 13 13 13 13 14 14 15 15 16 17 18 19 19 19 19 20 20 20 19 19 19
18 18 19 20 20 21 22 23 23 23 22 21 19 18 17 17 16 14 13 12 12 12 12 12 12 11 10 11 12 11 11 11 11 9 8 8 7 6 6 6 5 5 6 6 8 9 9 10 10 10 11 12 12 13 13 13 13 12 12 12 12 12 12 12 13 13 13 13 14 14 15 16 17 18 19 20 20 20 21 21 20 20 20 20 20
18 19 19 20 20 21 22 23 23 23 22 21 20 19 18 18 17 15 14 13 12 13 13 13 12 11 10 9 10 10 10 10 10 10 9 9 8 7 7 7 6 7 7 7 9 11 11 12 12 12 13 13 14 14 15 14 14 14 14 14 14 13 13 13 14 14 14 15 15 16 17 18 19 20 21 22 22 22 23 22 22 22 21 21 20
18 19 20 20 21 22 23 23 23 22 22 21 20 20 20 18 17 15 14 14 14 14 14 14 14 13 11 10 10 10 10 10 10 10 10 10 9 9 8 8 8 9 9 8 10 13 13 13 14 14 15 16 16 17 17 17 16 16 15 15 15 15 15 16 16 16 17 17 17 18 19 20 21 22 23 23 24 24 24 24 23 23 22 21 20
17 19 20 21 21 22 22 23 22 22 22 21 21 21 20 19 17 16 15 15 15 15 15 15 15 15 14 13 13 12 12 11 11 12 12 12 11 11 10 10 11 12 11 10 12 15 15 15 16 17 18 19 19 19 19 19 18 18 17 17 17 17 17 18 18 19 19 20 20 22 23 24 24 25 26 26 26 26 26 25 24 23 22 21 20
19 21 21 22 22 22 22 22 22 21 20 20 20 21 20 19 18 17 16 16 16 16 16 17 17 17 17 16 16 15 15 14 14 15 15 14 14 14 12 12 14 15 13 12 14 16 17 17 18 19 20 21 21 21 21 20 20 19 19 19 19 19 20 20 21 22 22 23 24 25 25 26 26 27 27 27 27 27 27 26 25 24 24 22 22
21 23 23 22 22 21 21 21 21 20 19 19 19 19 19 19 18 18 18 18 18 18 18 18 18 18 19 19 18 18 17 17 17 18 18 17 17 17 15 15 16 17 16 15 16 16 18 20 20 20 22 22 23 23 23 22 22 22 21 21 22 22 22 22 24 25 26 27 27 27 27 27 27 27 27 27 27 27 27 27 26 25 25 24 24
23 24 23 22 21 21 21 21 21 21 20 20 20 20 20 20 20 19 19 19 19 19 20 20 20 20 20 20 21 20 19 19 20 20 19 19 18 18 18 18 19 19 19 19 18 17 18 21 23 23 24 25 25 25 25 24 24 24 24 24 24 24 24 25 26 27 28 29 29 28 28 27 27 28 27 27 27 28 28 28 27 27 27 27 28
24 25 24 23 22 21 22 22 21 21 21 21 22 22 22 22 21 21 20 20 20 20 20 21 21 21 20 21 22 22 22 21 21 21 20 20 19 20 21 21 20 20 21 21 20 19 20 22 24 25 26 26 27 27 27 27 26 27 26 26 26 26 26 26 27 29 30 31 31 30 29 28 28 28 28 28 29 29 29 29 30 30 31 31 32
26 25 25 25 24 23 22 21 20 20 21 21 21 21 21 21 21 19 19 19 19 20 20 21 22 21 21 21 23 23 23 23 23 22 22 21 20 21 22 22 20 19 21 23 22 22 22 23 25 26 27 28 29 29 29 29 29 29 29 28 29 29 29 28 28 29 31 32 33 32 30 29 29 30 30 30 31 32 32 32 32 33 35 35 36
28 26 25 26 25 23 21 19 20 20 20 20 20 20 20 19 18 18 17 18 19 20 21 22 23 23 22 23 24 24 25 24 24 24 24 23 21 21 22 22 20 20 22 23 24 24 25 25 26 27 28 29 30 31 31 31 31 31 31 31 30 31 31 31 30 30 31 33 34 34 33 32 32 32 32 33 34 34 35 35 35 37 38 38 38
27 25 25 25 24 22 20 20 22 21 20 19 19 19 19 19 18 18 18 19 19 21 22 23 25 25 24 24 24 24 25 25 25 25 24 23 22 22 22 22 21 21 22 24 24 25 26 27 27 28 29 30 30 31 32 32 33 33 33 33 32 33 33 34 33 33 33 33 34 35 36 35 35 35 35 36 37 38 38 37 38 39 40 41 41
24 24 24 22 21 21 22 23 23 22 21 21 20 20 20 20 21 21 21 21 21 21 22 23 24 25 25 25 24 24 25 25 24 24 24 23 23 22 23 23 23 23 23 25 25 26 26 27 28 29 30 31 31 32 32 33 35 36 36 36 36 36 36 36 36 36 36 36 35 35 37 38 38 37 38 39 40 41 40 40 40 41 43 44 45
23 23 22 21 21 23 24 24 24 23 23 23 23 23 23 24 24 24 24 24 24 23 22 22 23 23 24 25 25 25 25 25 24 24 24 24 24 24 24 25 24 24 25 26 26 27 27 28 29 30 31 32 33 34 34 35 36 37 38 38 39 40 40 39 39 39 40 40 38 37 38 39 39 40 40 40 41 42 43 42 42 43 45 47 47
22 22 21 22 23 23 24 24 25 25 24 24 24 25 26 26 26 25 26 26 26 24 22 22 21 21 22 24 25 25 25 25 25 25 25 25 25 25 25 26 26 27 27 27 28 28 29 30 31 32 32 33 34 35 36 38 39 39 39 40 41 42 43 42 42 43 44 43 42 42 43 42 42 44 44 43 44 46 46 45 44 45 47 48 49
22 22 23 23 23 23 24 24 25 25 25 25 25 25 26 26 26 26 27 27 27 25 23 22 21 21 22 23 24 24 24 25 25 25 26 26 26 26 26 27 28 28 29 29 29 30 31 31 32 33 34 35 36 37 38 39 40 41 42 43 43 44 45 44 44 45 46 46 45 46 47 47 48 49 49 48 49 50 50 48 48 48 49 50 51
23 24 25 25 25 24 23 23 24 25 25 25 25 26 27 28 29 29 27 26 26 25 24 24 23 23 23 23 23 22 22 24 25 25 26 27 27 28 28 28 29 30 31 31 32 33 34 33 33 33 34 35 36 38 39 40 41 42 43 44 45 45 46 46 47 47 47 47 48 49 50 51 53 54 54 53 52 51 51 52 52 53 53 54 55
24 26 27 28 27 26 25 25 26 27 27 28 28 27 27 28 29 28 26 24 23 24 25 26 26 25 24 24 23 22 22 24 25 26 27 28 29 29 30 31 32 32 33 34 35 35 35 33 33 33 35 36 38 39 41 42 43 43 44 45 46 47 48 49 49 49 48 49 51 52 53 54 56 56 55 55 54 53 54 56 58 59 58 57 57
26 26 27 28 29 28 28 29 29 29 29 28 27 26 26 26 26 25 24 23 22 23 25 26 27 27 26 26 25 25 25 25 26 27 29 30 31 32 33 34 35 36 37 37 37 36 35 34 35 36 38 40 41 43 44 45 46 47 47 48 49 50 50 50 50 50 52 55 57 57 58 58 59 57 57 58 59 58 58 60 61 60 58 57 58
27 27 28 29 30 31 31 30 29 28 26 25 25 24 24 25 25 24 23 22 22 23 25 26 26 27 27 28 28 28 28 28 28 29 31 32 34 34 35 36 37 38 39 39 39 38 38 38 39 41 42 44 45 46 47 48 49 50 51 52 53 54 55 54 53 54 58 60 61 60 60 59 59 59 59 60 60 60 60 59 58 57 56 57 58
28 28 28 29 30 30 29 27 26 25 24 23 23 24 24 24 25 24 24 23 24 25 26 26 26 27 28 29 29 30 31 30 31 32 33 34 35 36 37 38 39 40 40 41 41 41 42 42 43 44 45 46 48 48 50 51 52 53 54 54 54 56 58 58 57 57 58 58 58 58 58 58 59 59 59 59 60 61 59 57 56 57 59 60 61
Wind_Direction
263 257 249 242 245 253 257 264 264 268 270 271 275 279 290 300 305 301 298 299 292 294 299 303 311 306 297 281 284 291 259 271 294 295 298 294 287 284 278 277 276 275 274 273 273 272 272 273 273 272 274 276 278 279 279 279 279 278 278 278 278 279 280 281 283 286 288 290 290 290 290 290 289 289 288 288 288 288 288 288 288 288 288 288 288
261 254 239 231 242 252 256 262 266 271 273 272 274 279 288 295 298 297 296 297 293 296 304 308 316 301 291 291 283 277 280 291 293 292 290 287 285 281 278 276 274 273 272 272 273 272 273 273 273 273 274 273 272 272 272 273 275 275 276 276 278 278 280 282 284 288 292 294 294 294 293 291 290 288 287 285 285 286 286 286 286 287 286 286 286
258 247 223 221 239 251 264 278 279 276 273 271 276 281 290 296 295 292 289 289 293 299 307 310 312 301 293 298 293 287 299 299 297 295 286 282 283 283 284 281 275 272 271 272 271 271 272 272 274 274 273 272 270 270 270 271 271 272 274 276 278 278 279 281 284 289 292 296 296 296 295 294 293 291 289 288 287 287 287 287 287 287 286 285 284
253 235 226 243 257 266 284 293 281 274 272 271 278 287 292 300 292 290 289 290 300 302 307 310 303 303 303 308 309 303 303 299 297 296 285 282 287 289 292 287 280 274 270 269 268 268 268 268 270 271 272 273 273 273 272 272 272 273 275 276 277 278 280 283 287 291 293 296 297 296 296 296 296 295 294 292 291 291 290 289 287 286 285 283 282
243 230 244 261 266 293 293 284 276 270 272 271 277 285 286 294 289 286 288 288 296 295 300 308 310 323 323 313 310 307 309 304 299 298 290 290 294 292 291 285 278 274 271 268 266 264 262 262 263 265 268 270 272 273 273 274 273 273 274 274 275 276 279 283 287 291 293 296 297 296 296 297 299 299 299 298 297 296 294 292 290 288 286 283 281
222 225 247 246 259 295 286 278 277 265 269 266 267 277 282 290 285 279 281 282 285 290 304 317 328 338 323 309 313 318 315 308 306 305 301 301 300 295 291 283 279 280 278 270 263 259 256 255 256 260 263 267 270 272 273 273 272 273 273 274 276 277 280 284 287 290 293 295 296 297 299 302 305 307 308 306 305 303 302 301 299 296 293 290 284
219 225 237 243 265 287 281 276 269 257 261 256 260 277 283 286 283 279 274 281 284 290 309 326 337 329 313 316 325 323 315 313 317 313 309 309 305 303 296 286 288 289 280 273 265 258 257 256 256 258 261 264 268 269 270 271 272 274 275 277 277 279 282 284 288 291 294 296 298 302 306 310 313 314 314 312 309 307 307 307 307 306 303 299 294
233 223 233 256 270 280 279 270 253 251 256 251 262 277 277 274 274 281 280 287 290 294 310 320 322 317 319 330 334 329 320 319 322 317 314 313 310 311 305 292 293 287 273 276 275 266 263 261 260 261 261 262 264 267 269 271 273 274 274 276 278 280 283 285 289 293 295 300 304 309 310 311 310 310 310 309 307 307 308 311 312 310 308 305 302
231 225 248 269 272 277 274 260 246 251 253 249 259 263 261 253 243 268 290 301 303 307 313 310 313 324 330 330 332 331 324 322 325 322 317 316 319 322 313 297 290 281 277 279 273 266 263 264 268 267 264 263 263 265 268 270 271 271 273 277 281 284 285 288 291 295 299 303 307 310 308 306 303 302 302 302 303 305 308 312 312 309 307 306 304
234 246 263 269 270 272 267 258 252 254 255 250 251 252 253 251 241 254 280 291 296 302 306 306 316 324 321 320 326 325 320 322 328 329 323 325 332 327 316 306 294 290 290 286 275 267 267 276 283 280 276 272 268 267 268 271 273 275 278 281 283 284 286 291 294 297 300 302 305 306 305 303 301 301 300 299 300 303 310 316 317 314 311 311 312
244 258 265 265 265 264 261 258 253 254 260 259 248 243 245 255 257 255 262 274 285 294 298 305 315 316 312 318 323 316 318 326 331 336 335 339 345 330 318 312 295 296 309 305 293 273 281 300 303 295 292 288 283 278 277 280 282 283 285 285 285 287 292 298 302 305 305 305 306 307 307 306 307 306 303 301 300 304 313 322 325 326 323 321 321
250 256 259 263 263 260 260 257 253 251 257 261 254 244 244 256 265 264 263 268 277 286 293 303 312 313 313 318 318 313 317 326 333 343 347 353 5 356 349 354 329 338 351 333 347 35 5 349 328 315 320 331 326 315 301 292 288 289 293 296 299 301 305 314 319 319 315 312 312 314 314 313 312 309 303 299 298 302 310 317 321 321 320 316 315
250 253 255 261 261 260 261 258 257 252 254 262 260 250 249 257 267 270 269 271 277 285 293 303 306 307 308 308 310 311 315 320 330 344 357 7 10 360 5 37 53 42 41 35 40 44 33 31 33 19 9 12 12 360 341 324 322 324 326 330 329 324 325 334 334 327 322 322 322 322 319 313 312 310 304 299 298 302 306 310 311 310 308 306 305
248 253 254 257 257 256 258 259 259 255 255 261 258 251 253 263 269 270 272 275 280 285 292 300 300 298 298 299 302 305 309 314 320 331 345 9 19 7 15 46 61 60 57 57 56 46 39 46 54 49 42 49 36 23 17 14 18 18 9 4 357 351 350 343 335 329 327 327 325 322 316 310 308 307 305 303 303 304 305 306 305 302 301 299 299
251 253 250 250 250 251 254 255 253 250 252 254 258 258 262 270 272 274 277 279 283 287 291 294 291 289 291 295 298 297 302 309 311 320 333 351 18 14 16 36 53 55 48 51 54 41 39 42 45 47 43 43 36 26 27 28 29 33 26 16 2 353 349 337 331 328 324 323 321 316 312 308 305 304 302 303 304 305 306 305 303 301 300 298 297
251 248 245 246 245 247 248 248 245 245 249 250 257 264 271 275 275 279 281 282 286 289 291 290 286 284 284 287 289 291 298 303 301 314 330 336 2 11 8 10 19 31 32 36 38 27 20 13 17 33 30 21 22 26 30 31 30 23 4 353 347 340 337 334 330 327 324 323 320 316 311 307 305 303 303 304 305 304 303 302 300 298 297 297 296
243 240 243 243 242 242 242 244 244 243 246 251 260 268 275 278 280 283 283 285 288 288 289 288 286 283 280 279 279 284 290 291 295 304 310 317 338 353 356 354 353 5 8 3 4 353 343 347 352 13 26 16 11 12 12 10 4 350 339 336 336 335 335 334 331 329 330 328 324 319 315 312 311 309 309 308 306 303 300 296 295 294 293 293 292
235 236 240 241 242 242 240 242 244 244 246 255 265 271 276 280 284 286 282 283 286 286 285 286 286 284 280 275 270 272 278 282 290 295 297 306 318 327 334 338 335 340 342 340 342 338 340 348 351 356 4 360 350 345 345 345 339 332 330 330 331 332 332 330 328 327 327 325 321 318 316 314 313 312 311 308 305 301 298 295 293 292 291 290 289
231 234 238 240 242 242 241 241 241 244 249 256 263 269 277 283 284 283 280 281 284 285 285 285 285 282 279 277 271 271 276 280 286 288 292 296 300 311 323 321 321 325 328 331 336 339 341 343 339 334 336 336 334 334 336 334 329 325 325 326 326 326 324 322 319 318 317 315 313 312 310 309 309 308 306 303 301 298 296 294 293 292 292 291 291
230 232 236 238 240 240 239 238 239 244 251 256 262 271 279 281 279 279 283 287 287 286 285 283 279 275 276 278 276 276 277 283 285 283 286 288 289 300 306 305 309 311 314 323 329 333 333 328 326 323 321 322 324 326 327 323 320 318 317 317 317 316 315 314 313 311 310 308 308 307 306 306 305 304 302 300 297 296 295 294 294 294 294 294 293
229 232 235 237 237 237 238 240 244 249 255 261 266 273 278 278 277 280 286 291 292 289 284 278 272 271 273 273 273 274 277 281 280 279 283 283 281 288 291 290 296 301 305 313 315 318 321 319 320 318 314 315 316 315 313 311 310 310 310 312 313 314 314 313 311 310 309 308 307 306 305 304 303 301 300 299 297 296 296 295 295 295 295 295 294
232 234 236 237 236 234 237 242 249 256 262 268 272 274 274 275 277 281 286 289 290 287 281 275 271 269 269 269 271 273 277 279 276 278 280 275 275 284 287 282 283 290 297 302 306 308 313 315 316 315 312 310 309 307 306 305 305 307 309 311 312 313 312 311 310 309 308 307 305 304 303 302 301 300 299 298 296 295 294 293 292 293 293 293 294
235 237 238 237 234 234 238 243 250 256 262 267 271 273 272 273 275 280 283 283 281 280 276 272 270 270 270 270 270 270 272 273 273 275 271 266 272 275 276 279 282 287 293 297 302 306 311 316 316 313 308 304 302 302 302 303 304 306 308 309 310 309 308 307 307 306 305 303 302 301 300 299 298 298 296 295 295 294 292 291 290 290 291 292 293
236 237 238 237 235 237 243 249 253 256 258 260 263 265 266 269 271 274 277 276 275 274 272 269 269 271 271 270 269 268 269 270 271 272 266 264 268 263 261 272 280 284 289 293 298 306 315 320 317 311 304 301 301 302 303 305 307 308 309 308 308 307 306 305 304 303 301 299 299 298 297 296 295 294 294 294 294 294 294 293 291 290 289 289 289
241 239 239 239 239 241 245 250 253 255 255 255 257 258 261 265 268 270 270 270 272 272 272 274 275 275 272 269 268 268 269 268 266 266 266 265 266 263 262 268 274 280 289 293 299 312 320 321 318 310 305 305 307 308 308 309 310 311 311 309 308 306 304 303 300 297 296 296 297 297 296 296 294 294 294 294 294 294 293 292 291 290 289 288 287
247 244 243 243 243 243 244 247 250 252 252 253 255 255 259 264 266 266 266 267 270 273 276 280 279 275 272 268 265 264 265 265 262 262 263 263 263 262 260 259 263 275 290 296 302 314 319 319 315 307 307 310 311 311 311 312 313 313 311 309 307 306 303 301 299 298 299 300 301 300 299 299 298 296 295 294 293 291 290 290 289 289 288 287 286
247 245 246 247 248 247 247 247 249 250 251 252 253 253 257 262 264 263 262 263 266 270 275 278 276 272 270 267 264 261 260 259 257 256 255 256 257 255 253 251 254 271 289 294 297 308 312 309 305 302 306 310 311 311 312 314 315 313 312 310 308 306 305 305 305 306 307 306 305 304 302 301 299 298 297 295 293 291 290 289 289 288 287 285 284
247 247 248 249 249 248 247 247 247 247 248 249 250 251 255 259 261 259 257 258 261 265 270 270 269 267 264 259 257 256 254 252 251 248 246 248 248 246 248 247 247 265 283 287 292 301 299 295 296 300 306 310 310 311 313 314 314 313 312 311 309 308 309 310 310 309 308 306 305 303 302 302 302 301 300 298 297 295 293 292 291 289 287 285 283
249 249 249 248 246 245 244 244 244 245 247 248 247 248 252 255 254 252 251 254 258 263 266 266 264 263 258 252 249 248 249 252 252 246 241 242 246 247 247 240 241 265 277 279 285 291 289 291 299 304 308 311 311 311 312 312 311 309 308 307 307 307 308 308 308 306 305 304 303 303 304 306 306 305 304 302 301 300 299 297 295 293 290 287 285
248 248 248 246 244 242 241 241 242 244 246 247 247 247 250 250 247 245 247 252 256 259 261 263 261 258 254 251 248 246 249 253 256 251 244 245 253 253 247 234 242 267 275 274 281 286 291 300 308 308 309 309 308 308 306 305 304 302 301 301 303 304 303 303 302 302 302 302 303 304 307 308 308 307 305 303 302 302 301 300 297 294 291 288 286
245 245 245 243 241 239 239 240 241 243 244 244 245 246 247 246 243 241 242 248 255 257 257 259 259 256 254 252 250 248 248 249 252 251 246 247 248 244 243 241 245 262 271 275 282 288 295 302 305 305 305 305 304 302 300 298 297 297 297 299 301 301 300 300 300 300 301 302 304 306 309 310 309 307 305 303 302 301 299 297 294 291 289 287 285
245 246 244 240 238 237 238 239 239 241 243 243 243 244 243 242 240 239 240 244 250 252 251 254 256 256 254 252 248 242 242 244 246 244 241 240 241 240 248 257 262 268 275 279 283 288 294 297 299 301 302 303 301 299 297 296 296 298 300 301 301 301 301 302 302 303 303 305 306 308 309 309 308 307 305 304 302 301 298 295 292 290 289 288 287
246 246 244 239 236 235 237 239 240 241 242 243 243 242 240 237 236 238 240 243 245 246 247 249 251 252 251 249 243 234 233 239 245 247 243 238 243 250 257 269 279 281 285 288 286 288 292 294 296 298 299 299 297 296 295 296 297 299 300 300 299 299 300 300 301 302 303 304 306 307 308 308 307 306 305 304 302 300 297 295 293 292 290 290 289
241 242 242 239 235 236 237 239 241 241 241 241 241 240 237 233 233 236 240 243 244 245 245 245 247 249 249 248 245 237 233 238 245 253 254 248 249 256 263 275 283 284 290 293 285 284 288 291 292 293 293 293 293 292 292 293 293 294 295 295 295 295 296 298 299 300 301 302 304 304 305 305 305 305 303 302 300 298 297 295 293 291 290 289 288
238 240 240 238 237 237 238 240 241 241 241 240 239 237 233 231 231 233 238 242 244 245 244 243 243 245 246 246 247 246 243 243 246 255 261 259 259 263 269 276 278 281 288 288 281 284 288 288 287 288 289 289 289 288 288 288 289 289 290 291 291 292 293 295 296 297 298 299 301 302 303 304 304 303 302 301 300 298 296 294 292 291 289 287 286
239 243 241 238 237 237 236 238 241 241 241 239 237 235 234 233 233 234 236 239 242 244 243 242 241 242 244 245 246 248 249 248 250 256 261 265 268 270 272 274 276 281 285 280 277 281 285 285 285 286 287 286 286 286 286 285 286 286 287 287 287 288 290 292 294 295 296 297 299 300 301 302 302 302 301 300 300 298 296 294 292 290 288 286 286
239 243 242 238 237 236 234 236 239 240 239 237 237 237 237 238 238 238 239 240 241 243 242 242 241 242 245 247 248 249 251 253 255 258 262 266 270 273 276 276 278 283 284 279 277 280 283 285 286 285 284 284 284 284 284 284 284 284 284 284 284 286 287 290 292 294 295 297 298 299 300 300 301 301 300 300 299 297 295 293 291 289 288 287 288
237 239 239 238 236 235 232 232 236 238 239 239 239 240 241 242 242 242 243 243 244 244 244 245 244 244 246 250 253 253 253 254 256 258 261 264 268 273 275 275 277 281 281 279 279 280 281 284 286 285 284 284 284 284 283 283 282 282 281 282 282 284 286 289 291 293 294 295 297 298 298 299 299 300 300 301 300 298 295 293 290 288 287 288 290
235 238 237 236 236 233 229 230 235 239 241 241 241 242 243 244 244 244 245 246 247 247 248 249 249 248 249 252 256 258 258 259 260 262 263 261 263 267 271 273 275 277 279 280 281 280 278 280 284 286 286 285 285 284 283 282 281 281 282 282 283 284 287 289 291 293 294 295 295 296 297 298 299 299 300 300 300 298 295 293 291 290 289 290 291
233 236 235 236 236 232 228 230 235 238 239 240 241 241 242 243 243 244 244 245 247 248 250 252 253 253 252 253 256 259 261 262 263 265 265 264 266 268 272 275 275 272 274 279 282 283 283 283 285 287 288 287 285 284 283 281 281 281 281 282 283 284 287 290 292 293 295 295 295 296 296 296 296 296 297 297 298 297 296 295 293 291 290 290 291
233 237 237 237 237 233 229 231 235 237 239 240 241 241 240 240 241 243 245 248 250 253 254 255 256 256 256 255 257 260 263 264 264 264 266 268 271 272 273 277 277 273 273 277 282 285 289 290 290 289 289 288 286 285 284 283 281 281 281 282 283 285 288 291 292 293 294 295 295 296 295 294 294 294 294 294 294 294 294 294 293 292 291 291 291
236 239 238 238 237 235 233 234 235 237 240 241 241 241 241 242 244 246 249 252 256 258 258 258 259 258 258 258 260 262 264 266 267 267 268 271 273 274 274 277 279 278 276 278 281 284 287 290 292 291 290 289 288 286 284 284 283 282 282 283 283 286 289 291 292 293 292 292 293 294 294 294 293 293 292 292 291 291 291 292 292 291 291 291 291
239 239 238 238 236 234 234 235 237 240 241 241 241 242 244 247 250 252 253 255 258 260 261 260 260 260 259 259 260 261 263 265 267 268 270 272 274 275 274 275 277 277 278 279 281 283 286 288 289 290 290 289 288 286 285 284 283 283 283 284 285 287 289 290 291 292 291 289 289 290 290 291 291 291 291 290 290 290 290 290 290 290 290 290 290
239 238 238 235 233 235 237 239 243 245 244 243 242 243 245 249 253 255 257 258 259 261 261 261 261 262 262 263 263 264 264 265 266 267 270 272 274 274 274 275 276 277 279 280 282 284 286 287 287 288 288 287 287 287 286 284 284 284 285 286 287 288 288 289 289 289 289 290 290 288 286 286 286 287 287 287 288 288 288 287 287 287 287 287 288
238 237 236 235 236 238 241 244 245 246 245 244 243 243 246 249 252 255 257 259 259 259 260 260 261 262 263 265 267 268 267 266 267 267 269 270 271 271 271 273 275 278 279 281 283 286 287 288 288 287 287 287 286 286 285 285 285 286 286 287 287 288 288 289 289 289 289 290 291 290 288 287 286 286 285 285 286 285 284 284 285 285 285 285 286
238 235 235 236 237 240 243 245 246 246 245 244 243 244 245 246 250 254 257 258 256 255 255 257 257 258 260 261 262 263 265 266 267 267 267 268 268 268 269 271 275 278 281 284 285 287 287 287 286 286 286 286 287 286 286 286 287 287 287 287 286 286 287 287 287 288 288 290 290 290 290 290 289 288 287 288 287 286 283 283 284 285 285 285 285
234 235 236 237 240 244 246 247 247 248 247 246 246 246 246 248 253 256 257 255 251 248 250 253 253 254 257 259 260 261 263 265 266 266 267 268 269 270 273 276 279 282 284 285 284 284 283 282 282 283 285 286 287 287 287 287 286 286 286 286 285 286 287 286 286 285 286 288 288 288 289 289 288 288 290 289 288 286 285 285 287 288 287 287 287
236 238 239 240 243 246 247 249 252 252 252 251 250 249 249 251 253 252 251 248 245 244 247 251 253 255 257 259 260 262 263 264 266 268 269 271 273 275 277 279 281 282 281 280 280 280 280 280 282 284 285 286 286 287 287 286 286 286 286 285 286 288 289 288 285 284 285 287 287 287 287 286 286 287 288 288 287 286 285 286 289 290 290 290 289
243 245 244 244 246 247 248 251 253 253 253 251 249 248 248 249 249 247 246 246 246 247 250 253 255 257 259 261 263 264 266 269 270 271 273 274 275 277 278 279 280 280 279 280 281 281 281 282 284 286 286 286 286 286 286 286 286 286 286 286 286 288 288 286 284 283 286 288 287 286 286 286 286 286 285 286 286 285 285 287 288 289 290 290 289
244 245 245 246 246 247 249 250 250 250 250 249 249 248 247 248 249 248 248 249 251 253 254 256 259 260 262 265 267 269 271 274 274 274 275 276 277 278 279 280 281 281 282 284 285 284 284 285 286 287 287 287 287 286 286 286 286 286 286 287 287 287 286 286 286 287 288 289 288 288 288 287 287 287 288 288 287 287 288 288 287 287 288 288 288
239 241 244 245 245 246 247 248 249 248 247 248 250 251 250 249 249 250 250 251 254 256 257 259 260 262 265 268 270 273 275 276 276 276 276 277 279 280 281 282 283 284 285 286 286 287 287 287 287 287 287 287 286 287 286 286 286 286 286 287 288 288 288 289 290 292 291 290 289 289 288 287 287 288 288 287 285 286 288 287 285 286 287 287 287
Height
5823 5823 5824 5825 5826 5826 5826 5826 5825 5825 5824 5824 5824 5824 5824 5825 5825 5824 5824 5824 5825 5825 5825 5825 5825 5824 5822 5820 5820 5823 5825 5824 5824 5825 5824 5824 5823 5823 5823 5823 5824 5824 5825 5825 5825 5826 5826 5826 5827 5827 5828 5828 5828 5829 5829 5830 5830 5830 5830 5830 5831 5831 5831 5832 5832 5832 5832 5832 5832 5831 5831 5831 5831 5831 5831 5830 5830 5830 5830 5830 5830 5829 5829 5829 5829
5821 5822 5823 5824 5825 5825 5825 5825 5824 5823 5823 5823 5824 5824 5824 5824 5824 5823 5823 5823 5824 5824 5825 5825 5825 5824 5821 5819 5820 5823 5824 5824 5823 5823 5822 5821 5821 5821 5821 5822 5823 5823 5823 5824 5824 5824 5825 5825 5826 5826 5826 5827 5827 5827 5827 5828 5828 5828 5829 5829 5829 5830 5830 5830 5830 5830 5830 5830 5830 5830 5830 5830 5829 5829 5829 5829 5829 5829 5828 5828 5828 5828 5828 5828 5827
5819 5820 5821 5823 5824 5824 5824 5823 5822 5823 5823 5823 5824 5824 5824 5824 5823 5822 5822 5822 5823 5823 5824 5824 5824 5823 5820 5819 5820 5822 5824 5823 5822 5821 5820 5819 5820 5820 5821 5821 5821 5822 5822 5822 5822 5823 5823 5824 5824 5825 5825 5825 5825 5825 5826 5826 5826 5827 5827 5827 5828 5828 5829 5829 5829 5829 5829 5829 5829 5829 5828 5828 5828 5828 5827 5827 5827 5827 5827 5827 5826 5826 5826 5826 5826
5818 5819 5820 5821 5822 5822 5821 5821 5822 5823 5823 5823 5823 5823 5823 5823 5823 5822 5821 5821 5822 5822 5822 5823 5823 5822 5821 5820 5820 5821 5822 5821 5820 5819 5818 5819 5819 5820 5821 5820 5820 5820 5821 5821 5821 5821 5822 5822 5823 5823 5823 5823 5824 5824 5824 5824 5825 5825 5825 5826 5826 5827 5827 5828 5828 5828 5827 5827 5827 5827 5827 5827 5826 5826 5826 5826 5825 5825 5825 5825 5825 5825 5825 5824 5824
5817 5817 5818 5819 5819 5820 5820 5821 5822 5822 5823 5823 5823 5823 5822 5822 5822 5821 5820 5820 5821 5821 5821 5822 5823 5823 5821 5820 5820 5821 5821 5821 5820 5818 5818 5819 5819 5819 5820 5819 5819 5819 5819 5819 5819 5820 5820 5821 5821 5821 5822 5822 5822 5822 5823 5823 5823 5824 5824 5824 5825 5825 5826 5826 5826 5826 5826 5826 5825 5825 5825 5825 5825 5825 5824 5824 5824 5824 5823 5823 5823 5823 5823 5823 5823
5815 5816 5817 5818 5818 5819 5819 5821 5821 5822 5822 5822 5822 5822 5822 5821 5821 5820 5820 5820 5820 5820 5821 5821 5822 5822 5821 5820 5820 5820 5821 5820 5819 5817 5817 5818 5818 5818 5818 5818 5818 5819 5818 5818 5818 5818 5818 5819 5819 5820 5820 5820 5821 5821 5821 5822 5822 5823 5823 5823 5823 5824 5824 5824 5824 5823 5823 5823 5823 5823 5823 5823 5823 5823 5823 5823 5822 5822 5822 5822 5822 5822 5821 5821 5821
5814 5815 5817 5817 5817 5818 5819 5820 5820 5821 5821 5822 5821 5821 5821 5821 5820 5820 5819 5819 5820 5820 5820 5821 5821 5821 5820 5821 5821 5820 5820 5819 5818 5817 5816 5817 5817 5817 5817 5817 5817 5818 5817 5817 5817 5817 5817 5818 5818 5818 5818 5819 5819 5820 5820 5821 5821 5822 5822 5822 5822 5822 5822 5822 5822 5822 5822 5822 5822 5822 5822 5822 5821 5821 5821 5821 5821 5821 5821 5820 5820 5820 5820 5819 5819
5812 5814 5815 5816 5816 5817 5818 5819 5820 5820 5821 5821 5821 5820 5820 5819 5819 5819 5818 5819 5819 5819 5820 5820 5820 5820 5820 5820 5819 5819 5819 5818 5818 5817 5816 5816 5816 5816 5816 5816 5816 5817 5816 5816 5816 5817 5817 5817 5817 5817 5817 5817 5818 5818 5819 5820 5820 5820 5820 5820 5820 5821 5821 5820 5820 5820 5820 5820 5820 5820 5820 5820 5820 5820 5820 5820 5820 5819 5819 5819 5819 5818 5818 5818 5818
5811 5812 5813 5814 5815 5816 5817 5818 5819 5819 5820 5820 5820 5819 5819 5819 5819 5818 5818 5818 5818 5818 5819 5820 5820 5820 5820 5819 5818 5818 5818 5817 5817 5817 5815 5815 5814 5814 5814 5815 5815 5816 5816 5816 5815 5815 5816 5816 5816 5816 5816 5816 5817 5817 5818 5819 5819 5819 5819 5819 5819 5820 5820 5819 5819 5819 5819 5819 5819 5820 5820 5820 5820 5819 5819 5819 5819 5818 5818 5818 5818 5817 5817 5817 5817
5811 5812 5813 5813 5814 5815 5817 5817 5818 5818 5819 5819 5819 5818 5818 5818 5818 5818 5817 5817 5817 5818 5818 5819 5819 5819 5820 5819 5818 5818 5817 5816 5816 5816 5815 5814 5814 5814 5814 5814 5814 5814 5815 5814 5814 5815 5815 5815 5815 5816 5816 5816 5816 5817 5817 5817 5818 5818 5818 5819 5819 5819 5819 5819 5819 5819 5819 5819 5819 5819 5819 5819 5819 5819 5818 5818 5818 5818 5818 5817 5817 5817 5816 5816 5816
5810 5812 5812 5812 5813 5814 5816 5816 5817 5817 5817 5818 5818 5818 5817 5817 5817 5817 5817 5816 5817 5817 5818 5818 5818 5818 5818 5818 5817 5816 5816 5815 5815 5815 5814 5814 5814 5814 5814 5814 5813 5814 5814 5814 5814 5815 5815 5815 5815 5815 5816 5816 5816 5817 5817 5817 5817 5817 5817 5818 5818 5818 5818 5818 5819 5819 5819 5819 5819 5819 5819 5819 5818 5818 5818 5817 5817 5817 5817 5817 5816 5816 5816 5815 5815
5808 5810 5811 5811 5812 5813 5815 5815 5816 5816 5816 5817 5817 5817 5817 5817 5817 5816 5816 5816 5816 5817 5817 5818 5818 5817 5817 5817 5816 5816 5815 5815 5815 5815 5814 5813 5813 5814 5814 5814 5813 5813 5814 5814 5814 5814 5814 5814 5815 5816 5816 5816 5816 5816 5816 5817 5817 5817 5817 5817 5818 5818 5818 5818 5818 5818 5819 5818 5818 5818 5818 5818 5818 5818 5818 5817 5817 5817 5817 5816 5816 5815 5815 5815 5815
5806 5808 5809 5810 5811 5812 5813 5814 5815 5815 5815 5815 5816 5817 5817 5816 5816 5816 5815 5816 5816 5816 5817 5817 5817 5817 5817 5816 5816 5816 5815 5814 5814 5814 5814 5814 5813 5813 5813 5814 5814 5813 5813 5813 5814 5814 5814 5815 5815 5816 5816 5816 5816 5817 5816 5817 5816 5816 5817 5817 5817 5817 5817 5817 5818 5818 5818 5818 5818 5818 5818 5818 5818 5818 5817 5817 5816 5816 5816 5815 5815 5815 5814 5814 5814
5805 5806 5807 5808 5809 5810 5811 5812 5813 5814 5814 5814 5815 5815 5816 5816 5816 5815 5815 5815 5815 5816 5816 5817 5816 5816 5816 5816 5816 5815 5814 5814 5814 5813 5813 5814 5814 5813 5813 5814 5814 5813 5813 5813 5813 5814 5815 5815 5815 5815 5816 5816 5816 5816 5816 5816 5816 5816 5816 5816 5816 5817 5817 5817 5817 5817 5818 5817 5817 5817 5817 5817 5817 5817 5817 5816 5816 5815 5814 5814 5814 5814 5813 5813 5813
5803 5805 5806 5807 5808 5809 5810 5811 5812 5813 5813 5813 5814 5814 5815 5815 5815 5815 5815 5815 5815 5815 5815 5816 5815 5815 5815 5815 5815 5815 5814 5814 5813 5813 5813 5813 5813 5813 5813 5813 5813 5813 5813 5813 5813 5814 5814 5815 5815 5815 5815 5816 5816 5816 5816 5816 5815 5815 5816 5816 5816 5816 5817 5817 5817 5817 5817 5817 5816 5816 5816 5816 5816 5816 5816 5815 5814 5814 5813 5813 5813 5812 5812 5812 5811
5801 5803 5804 5805 5807 5808 5809 5810 5811 5811 5812 5812 5812 5813 5814 5814 5814 5814 5814 5814 5814 5814 5814 5814 5814 5815 5815 5815 5814 5814 5814 5813 5812 5812 5813 5812 5813 5813 5813 5812 5812 5812 5812 5813 5813 5813 5814 5814 5814 5815 5815 5815 5815 5815 5815 5815 5815 5815 5816 5816 5816 5816 5816 5816 5816 5816 5816 5815 5815 5815 5815 5815 5815 5815 5814 5814 5813 5812 5812 5812 5811 5811 5811 5811 5810
5800 5801 5802 5804 5805 5806 5808 5808 5809 5810 5810 5811 5811 5812 5812 5813 5813 5813 5813 5812 5813 5813 5813 5813 5813 5814 5814 5814 5813 5813 5814 5813 5811 5812 5812 5812 5812 5812 5812 5812 5812 5812 5812 5813 5813 5813 5814 5814 5814 5814 5815 5815 5815 5815 5815 5815 5815 5815 5815 5815 5815 5815 5815 5814 5814 5814 5814 5814 5814 5814 5814 5814 5814 5813 5813 5812 5812 5811 5811 5811 5810 5810 5810 5809 5809
5799 5800 5801 5803 5804 5805 5806 5807 5808 5808 5809 5809 5810 5810 5810 5811 5812 5812 5812 5811 5811 5812 5812 5812 5812 5812 5812 5813 5813 5813 5813 5812 5812 5811 5811 5812 5812 5812 5812 5812 5812 5812 5813 5813 5813 5813 5813 5813 5813 5814 5815 5815 5815 5814 5814 5814 5814 5814 5814 5814 5814 5814 5813 5813 5813 5813 5813 5813 5813 5813 5813 5813 5812 5812 5811 5811 5811 5810 5810 5810 5809 5809 5808 5808 5808
5798 5799 5801 5802 5803 5804 5805 5806 5806 5807 5808 5808 5809 5809 5809 5810 5810 5810 5811 5810 5810 5810 5811 5811 5811 5811 5811 5811 5811 5812 5812 5812 5811 5811 5811 5812 5812 5812 5812 5812 5812 5812 5812 5813 5813 5813 5813 5813 5813 5814 5814 5814 5814 5814 5813 5813 5813 5813 5813 5813 5813 5813 5813 5813 5813 5813 5813 5812 5812 5812 5812 5812 5811 5811 5810 5810 5809 5809 5809 5808 5808 5808 5807 5807 5806
5797 5799 5800 5801 5802 5803 5804 5804 5805 5806 5806 5807 5807 5807 5807 5808 5809 5809 5809 5809 5809 5809 5809 5810 5810 5810 5810 5810 5810 5810 5811 5811 5811 5811 5811 5811 5811 5811 5812 5812 5812 5812 5812 5812 5813 5813 5813 5812 5813 5813 5813 5813 5813 5813 5813 5813 5813 5813 5813 5813 5813 5812 5812 5812 5812 5812 5812 5812 5812 5811 5811 5811 5810 5810 5809 5809 5808 5808 5808 5807 5807 5806 5806 5806 5805
5797 5798 5799 5800 5801 5802 5803 5804 5804 5805 5806 5806 5807 5807 5806 5807 5807 5807 5807 5807 5807 5808 5808 5808 5809 5809 5809 5809 5809 5809 5810 5810 5810 5810 5810 5810 5811 5811 5811 5811 5811 5812 5812 5812 5812 5812 5812 5812 5812 5812 5812 5812 5812 5812 5812 5812 5812 5812 5812 5812 5812 5812 5812 5811 5811 5811 5811 5811 5810 5810 5810 5809 5809 5809 5808 5808 5807 5807 5806 5806 5806 5805 5805 5805 5804
5796 5797 5798 5799 5800 5801 5802 5803 5803 5804 5805 5805 5805 5805 5805 5805 5805 5805 5806 5806 5806 5806 5807 5807 5807 5807 5808 5808 5808 5809 5809 5809 5808 5809 5809 5810 5810 5810 5810 5811 5811 5811 5811 5812 5812 5812 5812 5812 5812 5812 5811 5811 5811 5811 5811 5811 5811 5811 5811 5811 5811 5811 5810 5810 5810 5810 5810 5809 5809 5809 5809 5808 5808 5807 5807 5806 5806 5806 5805 5805 5805 5804 5804 5804 5803
5795 5796 5797 5798 5799 5800 5801 5801 5802 5802 5803 5803 5804 5804 5804 5804 5804 5804 5804 5805 5805 5805 5805 5806 5806 5806 5807 5807 5807 5808 5808 5807 5807 5807 5808 5809 5809 5809 5809 5810 5810 5810 5810 5811 5811 5811 5811 5811 5810 5810 5810 5810 5810 5810 5810 5810 5810 5810 5810 5810 5810 5809 5809 5809 5809 5809 5808 5808 5808 5808 5807 5807 5806 5806 5806 5805 5805 5805 5804 5804 5804 5803 5803 5802 5802
5793 5795 5796 5797 5797 5798 5799 5799 5800 5800 5801 5802 5802 5802 5802 5802 5802 5803 5803 5804 5804 5804 5804 5804 5804 5805 5805 5805 5805 5805 5805 5805 5806 5806 5806 5807 5808 5808 5809 5809 5809 5809 5809 5809 5809 5809 5809 5809 5809 5809 5809 5809 5809 5809 5809 5809 5809 5809 5809 5808 5808 5808 5808 5808 5808 5807 5807 5807 5807 5806 5806 5805 5805 5805 5804 5804 5804 5804 5803 5803 5803 5803 5802 5801 5801
5792 5793 5794 5795 5795 5796 5797 5798 5798 5799 5799 5799 5800 5800 5800 5801 5801 5801 5802 5802 5803 5803 5803 5803 5803 5803 5803 5803 5802 5803 5803 5804 5805 5805 5805 5806 5806 5807 5807 5808 5808 5808 5808 5808 5808 5808 5808 5808 5808 5808 5808 5808 5808 5808 5808 5808 5808 5808 5808 5807 5807 5807 5807 5807 5806 5806 5806 5806 5805 5805 5805 5804 5804 5803 5803 5803 5802 5802 5802 5802 5802 5801 5801 5800 5799
5790 5791 5792 5793 5793 5794 5794 5795 5796 5796 5797 5797 5798 5798 5799 5799 5799 5800 5800 5801 5801 5801 5801 5801 5801 5801 5801 5801 5801 5801 5802 5802 5803 5804 5804 5804 5805 5805 5806 5806 5806 5807 5807 5807 5807 5807 5807 5807 5807 5807 5807 5807 5807 5807 5807 5807 5807 5807 5807 5807 5806 5806 5806 5806 5805 5805 5805 5804 5804 5804 5804 5803 5803 5802 5802 5801 5801 5801 5801 5800 5800 5800 5799 5798 5797
5788 5789 5790 5791 5791 5792 5792 5793 5793 5794 5794 5795 5795 5796 5797 5797 5797 5798 5799 5799 5800 5800 5799 5799 5799 5799 5799 5799 5799 5800 5801 5801 5802 5802 5802 5803 5803 5804 5804 5805 5805 5805 5806 5806 5806 5806 5806 5806 5807 5806 5806 5806 5806 5806 5806 5806 5806 5806 5806 5805 5805 5805 5805 5805 5804 5804 5804 5803 5803 5802 5802 5802 5801 5801 5801 5800 5800 5799 5799 5798 5798 5797 5797 5796 5795
5785 5786 5787 5788 5789 5789 5790 5790 5791 5791 5792 5793 5793 5794 5794 5795 5795 5796 5797 5798 5798 5798 5798 5798 5798 5798 5798 5798 5798 5798 5799 5799 5800 5801 5801 5801 5802 5802 5803 5803 5804 5804 5805 5805 5805 5805 5805 5805 5805 5805 5805 5805 5805 5804 5804 5805 5805 5804 5804 5804 5804 5804 5804 5803 5803 5803 5802 5802 5801 5801 5801 5800 5800 5799 5799 5798 5798 5797 5797 5796 5795 5795 5794 5794 5793
5782 5783 5785 5785 5786 5787 5787 5788 5788 5789 5789 5790 5791 5791 5792 5792 5793 5794 5795 5796 5796 5797 5797 5797 5797 5796 5796 5797 5797 5797 5798 5797 5798 5799 5799 5799 5800 5801 5801 5802 5802 5802 5803 5803 5803 5804 5804 5804 5804 5804 5804 5804 5803 5803 5803 5803 5803 5803 5803 5803 5803 5802 5802 5802 5802 5801 5801 5800 5800 5799 5799 5798 5798 5798 5797 5797 5796 5796 5795 5794 5794 5793 5792 5792 5791
5779 5781 5782 5783 5783 5784 5784 5785 5786 5787 5787 5788 5789 5789 5790 5790 5791 5792 5793 5794 5795 5795 5796 5796 5796 5795 5795 5795 5796 5796 5796 5796 5796 5797 5797 5798 5798 5799 5800 5800 5800 5801 5801 5802 5802 5803 5803 5802 5802 5802 5802 5802 5802 5802 5802 5802 5802 5802 5801 5801 5801 5801 5801 5801 5800 5800 5799 5799 5798 5798 5797 5797 5796 5796 5796 5795 5794 5794 5793 5792 5792 5791 5791 5790 5789
5777 5778 5780 5780 5781 5781 5782 5783 5783 5784 5785 5786 5786 5787 5788 5788 5789 5790 5791 5792 5793 5794 5794 5794 5794 5794 5794 5794 5794 5795 5795 5795 5795 5795 5796 5797 5797 5797 5798 5799 5799 5800 5800 5801 5801 5801 5801 5801 5801 5801 5801 5801 5801 5800 5800 5800 5800 5800 5800 5800 5799 5799 5799 5799 5798 5798 5797 5796 5796 5795 5795 5794 5794 5794 5794 5793 5792 5792 5791 5790 5790 5789 5789 5788 5788
5775 5776 5777 5778 5778 5779 5780 5780 5781 5782 5782 5783 5784 5785 5786 5786 5787 5788 5789 5790 5791 5792 5792 5792 5793 5793 5793 5793 5793 5794 5793 5793 5794 5794 5794 5795 5796 5796 5797 5797 5798 5798 5799 5799 5799 5799 5799 5799 5799 5799 5799 5799 5799 5798 5798 5798 5798 5798 5798 5798 5798 5798 5797 5797 5796 5795 5795 5794 5793 5793 5792 5792 5792 5792 5791 5791 5790 5790 5789 5788 5788 5787 5786 5786 5785
5773 5774 5775 5776 5776 5777 5777 5778 5779 5779 5780 5781 5781 5782 5783 5784 5785 5786 5787 5788 5789 5789 5790 5791 5791 5791 5791 5791 5792 5792 5792 5792 5792 5792 5793 5794 5795 5795 5796 5796 5796 5797 5797 5798 5797 5797 5797 5797 5797 5797 5797 5797 5797 5797 5796 5796 5796 5796 5796 5796 5796 5795 5795 5794 5794 5793 5792 5792 5791 5790 5790 5790 5789 5789 5789 5788 5788 5787 5786 5786 5785 5785 5784 5783 5783
5771 5772 5773 5773 5774 5774 5774 5775 5776 5777 5778 5778 5779 5780 5781 5782 5783 5784 5785 5786 5787 5787 5788 5789 5789 5789 5790 5790 5790 5791 5791 5791 5790 5790 5791 5792 5793 5794 5794 5794 5794 5794 5795 5796 5796 5795 5795 5795 5795 5795 5795 5795 5795 5794 5794 5794 5794 5794 5794 5794 5793 5793 5792 5792 5791 5791 5790 5789 5789 5788 5788 5787 5787 5787 5786 5786 5785 5785 5784 5783 5782 5782 5781 5781 5780
5769 5769 5770 5770 5771 5772 5772 5773 5773 5774 5775 5776 5777 5778 5779 5780 5781 5782 5783 5784 5785 5785 5786 5787 5787 5787 5788 5788 5788 5788 5789 5789 5789 5789 5789 5790 5791 5791 5792 5792 5792 5792 5793 5794 5793 5792 5793 5793 5793 5793 5793 5793 5792 5792 5792 5792 5791 5791 5791 5791 5791 5790 5790 5789 5789 5789 5788 5787 5787 5786 5785 5785 5785 5784 5784 5783 5783 5782 5781 5780 5780 5779 5778 5778 5777
5766 5766 5767 5767 5768 5769 5770 5770 5771 5772 5773 5774 5775 5776 5777 5778 5779 5780 5781 5782 5783 5783 5784 5785 5786 5786 5786 5786 5786 5786 5786 5787 5787 5787 5787 5788 5788 5788 5789 5789 5789 5790 5791 5792 5791 5790 5790 5790 5790 5790 5790 5790 5790 5790 5789 5789 5789 5789 5789 5788 5788 5788 5787 5786 5786 5786 5785 5785 5784 5783 5783 5782 5782 5781 5781 5781 5780 5779 5778 5778 5777 5776 5775 5775 5774
5764 5764 5764 5765 5766 5766 5767 5768 5769 5770 5771 5772 5773 5774 5775 5776 5777 5778 5779 5780 5780 5781 5782 5783 5784 5784 5784 5784 5784 5785 5785 5785 5785 5785 5785 5786 5786 5786 5786 5787 5787 5787 5788 5788 5788 5788 5787 5787 5787 5788 5787 5787 5787 5787 5787 5787 5786 5786 5786 5786 5785 5785 5784 5784 5783 5783 5782 5782 5781 5780 5779 5779 5778 5778 5778 5777 5777 5776 5775 5775 5774 5773 5772 5772 5771
5760 5760 5761 5762 5763 5764 5765 5766 5767 5768 5769 5770 5771 5772 5773 5774 5775 5776 5777 5777 5778 5779 5779 5780 5781 5782 5782 5782 5782 5783 5783 5783 5783 5783 5784 5784 5784 5784 5784 5785 5784 5784 5785 5785 5785 5785 5785 5784 5784 5785 5784 5784 5784 5784 5784 5784 5784 5783 5783 5783 5783 5782 5782 5781 5780 5780 5779 5779 5778 5777 5776 5776 5775 5775 5774 5774 5773 5773 5772 5772 5771 5770 5769 5769 5769
5757 5757 5758 5759 5760 5761 5762 5763 5765 5766 5767 5768 5768 5769 5770 5771 5772 5773 5774 5775 5776 5776 5777 5777 5778 5779 5780 5780 5780 5780 5781 5781 5781 5781 5781 5782 5782 5782 5782 5782 5783 5782 5782 5782 5782 5783 5783 5782 5782 5782 5782 5781 5781 5781 5781 5781 5781 5780 5780 5780 5779 5779 5779 5779 5778 5777 5776 5776 5775 5774 5774 5773 5772 5771 5771 5771 5770 5769 5769 5768 5768 5767 5766 5765 5765
5754 5754 5755 5756 5757 5758 5760 5762 5763 5764 5764 5765 5766 5767 5768 5769 5770 5771 5772 5772 5773 5773 5774 5774 5775 5776 5778 5778 5777 5777 5778 5778 5779 5779 5779 5779 5780 5780 5779 5780 5781 5781 5780 5779 5779 5780 5780 5779 5779 5779 5778 5778 5778 5778 5778 5778 5777 5777 5777 5776 5776 5775 5775 5776 5775 5774 5772 5772 5771 5771 5771 5770 5769 5768 5768 5767 5766 5766 5765 5764 5764 5763 5761 5761 5760
5750 5751 5752 5753 5754 5756 5758 5760 5761 5761 5762 5763 5764 5765 5766 5767 5767 5768 5769 5770 5771 5771 5772 5772 5772 5774 5775 5775 5774 5775 5775 5775 5776 5776 5777 5777 5777 5777 5776 5777 5778 5778 5777 5777 5776 5776 5776 5776 5776 5776 5775 5775 5774 5774 5774 5774 5773 5773 5773 5773 5772 5771 5771 5771 5771 5771 5770 5768 5767 5767 5767 5767 5766 5765 5764 5763 5762 5761 5761 5760 5759 5758 5757 5756 5755
5748 5749 5749 5750 5752 5754 5757 5758 5758 5759 5760 5761 5762 5763 5764 5765 5766 5766 5767 5768 5768 5768 5769 5769 5769 5771 5772 5772 5772 5772 5772 5773 5773 5773 5774 5774 5775 5775 5774 5774 5775 5775 5774 5774 5773 5772 5772 5772 5772 5772 5772 5771 5771 5770 5770 5769 5769 5768 5768 5768 5767 5767 5766 5766 5766 5766 5766 5765 5764 5763 5762 5761 5761 5760 5760 5759 5758 5757 5756 5755 5754 5753 5751 5750 5750
5745 5746 5747 5749 5751 5753 5754 5754 5755 5757 5758 5759 5760 5761 5762 5763 5763 5764 5764 5765 5766 5766 5766 5766 5766 5767 5768 5768 5769 5769 5769 5770 5770 5771 5771 5772 5772 5772 5771 5771 5771 5771 5771 5770 5770 5769 5769 5768 5768 5768 5767 5767 5767 5766 5766 5765 5764 5763 5763 5763 5762 5762 5761 5761 5761 5760 5760 5760 5761 5760 5758 5757 5756 5756 5755 5754 5752 5751 5751 5751 5749 5748 5746 5744 5744
5742 5744 5746 5748 5749 5749 5750 5751 5753 5754 5755 5756 5757 5758 5759 5760 5760 5761 5762 5762 5763 5763 5763 5763 5763 5764 5765 5765 5765 5766 5767 5767 5768 5768 5769 5769 5769 5769 5768 5768 5767 5767 5767 5766 5766 5765 5765 5765 5764 5764 5763 5763 5762 5761 5761 5760 5760 5759 5758 5758 5757 5756 5756 5756 5756 5755 5754 5754 5754 5755 5754 5753 5752 5751 5751 5751 5749 5746 5745 5745 5744 5743 5741 5739 5738
5740 5742 5744 5745 5746 5747 5748 5749 5750 5751 5752 5753 5754 5755 5756 5756 5757 5758 5758 5759 5759 5760 5760 5760 5761 5761 5762 5762 5762 5763 5763 5764 5765 5766 5766 5766 5765 5765 5765 5765 5764 5763 5763 5762 5762 5761 5761 5761 5760 5760 5759 5758 5758 5757 5757 5756 5755 5755 5754 5754 5753 5751 5751 5750 5750 5749 5748 5747 5747 5747 5746 5746 5747 5746 5745 5746 5746 5743 5741 5740 5739 5738 5736 5734 5733
5738 5740 5741 5742 5743 5744 5745 5745 5746 5747 5748 5749 5750 5751 5752 5753 5754 5755 5755 5755 5756 5757 5757 5757 5758 5758 5759 5759 5759 5760 5760 5761 5762 5762 5762 5762 5762 5762 5761 5761 5760 5760 5759 5758 5758 5758 5757 5757 5756 5755 5755 5754 5754 5753 5753 5752 5751 5750 5749 5749 5748 5747 5746 5746 5745 5743 5742 5741 5740 5739 5739 5738 5737 5737 5738 5738 5738 5737 5735 5734 5733 5732 5730 5728 5727
5735 5736 5737 5739 5740 5741 5742 5742 5743 5744 5745 5746 5747 5748 5749 5749 5750 5751 5752 5752 5752 5753 5754 5754 5755 5755 5756 5756 5756 5757 5757 5758 5758 5758 5758 5758 5758 5758 5758 5757 5757 5756 5755 5755 5754 5754 5753 5752 5752 5751 5750 5749 5749 5748 5747 5747 5746 5745 5744 5743 5741 5741 5740 5740 5739 5738 5737 5736 5734 5732 5733 5732 5729 5728 5729 5729 5729 5729 5727 5725 5725 5724 5722 5721 5719
5731 5732 5734 5735 5736 5738 5738 5739 5739 5740 5741 5742 5743 5744 5745 5746 5746 5747 5748 5748 5749 5750 5751 5751 5751 5752 5753 5753 5754 5754 5754 5754 5754 5754 5754 5754 5754 5754 5753 5753 5752 5752 5751 5750 5750 5750 5749 5748 5747 5746 5745 5744 5743 5743 5742 5740 5739 5738 5737 5736 5735 5734 5734 5733 5732 5731 5731 5730 5729 5726 5726 5725 5722 5721 5720 5719 5719 5720 5719 5717 5715 5714 5713 5712 5710
5728 5729 5731 5732 5733 5734 5735 5735 5736 5737 5737 5738 5739 5740 5741 5742 5742 5743 5744 5745 5745 5746 5747 5747 5748 5749 5749 5749 5750 5750 5750 5751 5751 5750 5750 5750 5749 5749 5749 5748 5748 5747 5746 5745 5746 5745 5744 5743 5742 5741 5740 5739 5738 5737 5736 5734 5733 5732 5730 5730 5729 5728 5726 5726 5725 5725 5724 5723 5722 5720 5718 5717 5715 5714 5713 5711 5709 5710 5711 5710 5707 5706 5705 5703 5700
5725 5726 5727 5729 5729 5730 5731 5732 5732 5733 5734 5735 5735 5736 5737 5738 5739 5740 5741 5741 5742 5743 5743 5743 5744 5745 5745 5745 5746 5746 5746 5747 5746 5746 5745 5744 5744 5744 5744 5743 5743 5742 5741 5741 5741 5740 5739 5737 5737 5736 5735 5734 5733 5731 5730 5728 5727 5725 5723 5723 5722 5720 5718 5718 5719 5719 5717 5715 5714 5713 5711 5710 5708 5706 5705 5703 5700 5700 5702 5702 5700 5698 5697 5695 5692
5721 5722 5723 5725 5725 5726 5727 5728 5729 5730 5730 5731 5732 5733 5734 5734 5735 5736 5737 5738 5738 5738 5738 5739 5740 5741 5741 5741 5742 5742 5742 5742 5741 5740 5740 5739 5739 5739 5739 5738 5738 5737 5736 5735 5735 5734 5733 5732 5731 5731 5730 5728 5727 5726 5724 5722 5720 5718 5717 5717 5716 5713 5710 5710 5711 5712 5710 5708 5707 5706 5705 5704 5702 5700 5698 5695 5692 5691 5692 5693 5692 5690 5688 5687 5685